Powrót do katalogu

MOLNIYA 2-9

AktywnyŁącznośćHEO
NORAD 7276·PAYLOAD·🇷🇺 Russia

Wystrzelony Apr 26, 1974 z Plesetsk Cosmodrome

Loading…

Następne Przeloty (najbliższe 24 godziny)

TLE

ŚwieżeSource: Space-Track

Epoka: Sep 14, 2026, 09:29 UTC

1 07276U 74026A   26257.39575473 -.00000096  00000-0  00000-0 0  9992
2 07276  64.3688   5.3027 6714179 261.9721  23.0449  2.45096114287202

Śledź MOLNIYA 2-9 w czasie rzeczywistym z AllMySat

Download on the App Store